Date,TemperatureHighF,TemperatureAvgF,TemperatureLowF,DewpointHighF,DewpointAvgF,DewpointLowF,HumidityHigh,HumidityAvg,HumidityLow,PressureMaxIn,PressureMinIn,WindSpeedMaxMPH,WindSpeedAvgMPH,GustSpeedMaxMPH,PrecipitationSumIn
2014-1-1,49,36,29,-100,-100,-100,0,0,100,0.00,40.00,0,-999,0,0.00
2014-1-2,35,29,16,-100,-100,-100,0,0,100,0.00,40.00,0,-999,0,0.00
2014-1-3,21,15,12,-100,-100,-100,0,0,100,0.00,40.00,0,-999,0,0.00
2014-1-4,43,22,6,-100,-100,-100,0,0,100,0.00,40.00,0,-999,0,0.04
2014-1-5,54,37,21,-100,-100,-100,0,0,100,0.00,40.00,0,-999,0,0.02
2014-1-6,56,22,-2,-100,-100,-100,0,0,100,0.00,40.00,0,-999,0,0.14
2014-1-7,9,2,-5,-100,-100,-100,0,0,100,0.00,40.00,0,-999,0,0.01
2014-1-8,31,20,8,-100,-100,-100,0,0,100,0.00,40.00,0,-999,0,0.00
2014-1-9,38,30,26,-100,-100,-100,0,0,100,0.00,40.00,0,-999,0,0.00
2014-1-10,48,38,33,-100,-100,-100,0,0,100,0.00,40.00,0,-999,0,0.02
2014-1-11,64,51,43,-100,-100,-100,0,0,100,0.00,40.00,0,-999,0,0.31
2014-1-12,44,38,31,-100,-100,-100,0,0,100,0.00,40.00,0,-999,0,0.05
2014-1-13,63,51,30,-100,-100,-100,0,0,100,0.00,40.00,0,-999,0,0.06
2014-1-14,49,43,33,-100,-100,-100,0,0,100,0.00,40.00,0,-999,0,0.19
2014-1-15,39,35,29,-100,-100,-100,0,0,100,0.00,40.00,0,-999,0,0.01
2014-1-16,37,31,27,-100,-100,-100,0,0,100,0.00,40.00,0,-999,0,0.00
2014-1-17,45,36,26,-100,-100,-100,0,0,100,0.00,40.00,0,-999,0,0.02
2014-1-18,25,20,15,-100,-100,-100,0,0,100,0.00,40.00,0,-999,0,0.02
2014-1-19,38,30,22,-100,-100,-100,0,0,100,0.00,40.00,0,-999,0,0.01
2014-1-20,41,37,33,-100,-100,-100,0,0,100,0.00,40.00,0,-999,0,0.01
2014-1-21,32,23,11,-100,-100,-100,0,0,100,0.00,40.00,0,-999,0,0.00
2014-1-22,15,9,1,-100,-100,-100,0,0,100,0.00,40.00,0,-999,0,0.00
2014-1-23,16,13,8,-100,-100,-100,0,0,100,0.00,40.00,0,-999,0,0.00
2014-1-24,22,12,5,-100,-100,-100,0,0,100,0.00,40.00,0,-999,0,0.00
2014-1-25,28,25,19,-100,-100,-100,0,0,100,0.00,40.00,0,-999,0,0.00
2014-1-26,34,22,8,-100,-100,-100,0,0,100,0.00,40.00,0,-999,0,0.00
2014-1-27,45,23,8,-100,-100,-100,0,0,100,0.00,40.00,0,-999,0,0.24
2014-1-28,13,6,-2,-100,-100,-100,0,0,100,0.00,40.00,0,-999,0,0.05
2014-1-29,18,6,-5,-100,-100,-100,0,0,100,0.00,40.00,0,-999,0,0.00
2014-1-30,38,17,-2,-100,-100,-100,0,0,100,0.00,40.00,0,-999,0,0.00
2014-1-31,46,37,29,-100,-100,-100,0,0,100,0.00,40.00,0,-999,0,0.02
2014-2-1,61,39,29,-100,-100,-100,0,0,100,0.00,40.00,0,-999,0,0.01
2014-2-2,41,36,32,-100,-100,-100,0,0,100,0.00,40.00,0,-999,0,0.25
2014-2-3,32,30,28,-100,-100,-100,0,0,100,0.00,40.00,0,-999,0,0.05
2014-2-4,37,30,23,-100,-100,-100,0,0,100,0.00,40.00,0,-999,0,0.00
2014-2-5,45,34,25,-100,-100,-100,0,0,100,0.00,40.00,0,-999,0,0.98
2014-2-6,34,26,20,-100,-100,-100,0,0,100,0.00,40.00,0,-999,0,0.03
2014-2-7,32,25,16,-100,-100,-100,0,0,100,0.00,40.00,0,-999,0,0.00
2014-2-8,31,20,11,-100,-100,-100,0,0,100,0.00,40.00,0,-999,0,0.00
2014-2-9,37,28,23,-100,-100,-100,0,0,100,0.00,40.00,0,-999,0,0.01
2014-2-10,25,21,10,-100,-100,-100,0,0,100,0.00,40.00,0,-999,0,0.01
2014-2-11,28,15,7,-100,-100,-100,0,0,100,0.00,40.00,0,-999,0,0.00
2014-2-12,37,18,1,-100,-100,-100,0,0,100,0.00,40.00,0,-999,0,0.00
2014-2-13,32,29,25,-100,-100,-100,0,0,100,0.00,40.00,0,-999,0,0.00
2014-2-14,45,36,27,-100,-100,-100,0,0,100,0.00,40.00,0,-999,0,0.16
2014-2-15,33,28,17,-100,-100,-100,0,0,100,0.00,40.00,0,-999,0,0.02
2014-2-16,30,23,12,-100,-100,-100,0,0,100,0.00,40.00,0,-999,0,0.00
2014-2-17,42,26,6,-100,-100,-100,0,0,100,0.00,40.00,0,-999,0,0.05
2014-2-18,54,42,31,-100,-100,-100,0,0,100,0.00,40.00,0,-999,0,0.19
2014-2-19,56,44,30,-100,-100,-100,0,0,100,0.00,40.00,0,-999,0,0.13
2014-2-20,61,42,26,-100,-100,-100,0,0,100,0.00,40.00,0,-999,0,0.01
2014-2-21,57,47,39,-100,-100,-100,0,0,100,0.00,40.00,0,-999,0,0.11
2014-2-22,60,45,33,-100,-100,-100,0,0,100,0.00,40.00,0,-999,0,0.01
2014-2-23,53,39,31,-100,-100,-100,0,0,100,0.00,40.00,0,-999,0,0.10
2014-2-24,37,31,26,-100,-100,-100,0,0,100,0.00,40.00,0,-999,0,0.10
2014-2-25,30,28,24,-100,-100,-100,0,0,100,0.00,40.00,0,-999,0,0.01
2014-2-26,31,24,20,-100,-100,-100,0,0,100,0.00,40.00,0,-999,0,0.00
2014-2-27,29,21,11,-100,-100,-100,0,0,100,0.00,40.00,0,-999,0,0.00
2014-2-28,36,18,4,-100,-100,-100,0,0,100,0.00,40.00,0,-999,0,0.00
2014-3-1,53,34,19,-100,-100,-100,0,0,100,0.00,40.00,0,-999,0,0.00
2014-3-2,38,32,21,-100,-100,-100,0,0,100,0.00,40.00,0,-999,0,0.00
2014-3-3,20,14,7,-100,-100,-100,0,0,100,0.00,40.00,0,-999,0,0.00
2014-3-4,34,16,2,-100,-100,-100,0,0,100,0.00,40.00,0,-999,0,0.01
2014-3-5,38,28,15,-100,-100,-100,0,0,100,0.00,40.00,0,-999,0,0.11
2014-3-6,46,33,24,-100,-100,-100,0,0,100,0.00,40.00,0,-999,0,0.07
2014-3-7,59,38,28,-100,-100,-100,0,0,100,0.00,40.00,0,-999,0,0.05
2014-3-8,60,42,28,-100,-100,-100,0,0,100,0.00,40.00,0,-999,0,0.02
2014-3-9,43,35,28,-100,-100,-100,0,0,100,0.00,40.00,0,-999,0,0.00
2014-3-10,61,46,35,-100,-100,-100,0,0,100,0.00,40.00,0,-999,0,0.00
2014-3-11,75,65,50,-100,-100,-100,0,0,100,0.00,40.00,0,-999,0,0.00
2014-3-12,57,41,27,-100,-100,-100,0,0,100,0.00,40.00,0,-999,0,0.53
2014-3-13,34,21,13,-100,-100,-100,0,0,100,0.00,40.00,0,-999,0,0.31
2014-3-14,64,47,30,-100,-100,-100,0,0,100,0.00,40.00,0,-999,0,0.00
2014-3-15,60,50,39,-100,-100,-100,0,0,100,0.00,40.00,0,-999,0,0.02
2014-3-16,38,34,29,-100,-100,-100,0,0,100,0.00,40.00,0,-999,0,0.02
2014-3-17,43,34,27,-100,-100,-100,0,0,100,0.00,40.00,0,-999,0,0.06
2014-3-18,54,41,33,-100,-100,-100,0,0,100,0.00,40.00,0,-999,0,0.03
2014-3-19,68,57,52,-100,-100,-100,0,0,100,0.00,40.00,0,-999,0,0.01
2014-3-20,48,44,35,-100,-100,-100,0,0,100,0.00,40.00,0,-999,0,0.00
2014-3-21,59,41,34,-100,-100,-100,0,0,100,0.00,40.00,0,-999,0,0.01
2014-3-22,63,52,39,-100,-100,-100,0,0,100,0.00,40.00,0,-999,0,0.01
2014-3-23,40,36,26,-100,-100,-100,0,0,100,0.00,40.00,0,-999,0,0.01
2014-3-24,39,26,17,-100,-100,-100,0,0,100,0.00,40.00,0,-999,0,0.00
2014-3-25,40,32,28,-100,-100,-100,0,0,100,0.00,40.00,0,-999,0,0.00
2014-3-26,37,26,22,-100,-100,-100,0,0,100,0.00,40.00,0,-999,0,0.00
2014-3-27,62,40,20,-100,-100,-100,0,0,100,0.00,40.00,0,-999,0,0.00
2014-3-28,69,59,52,-100,-100,-100,0,0,100,0.00,40.00,0,-999,0,0.00
2014-3-29,66,47,38,-100,-100,-100,0,0,100,0.00,40.00,0,-999,0,0.58
2014-3-30,52,39,32,-100,-100,-100,0,0,100,0.00,40.00,0,-999,0,0.58
2014-3-31,62,40,28,-100,-100,-100,0,0,100,0.00,40.00,0,-999,0,0.01
2014-4-1,82,54,33,-100,-100,-100,0,0,100,0.00,40.00,0,-999,0,0.00
2014-4-2,62,52,45,-100,-100,-100,0,0,100,0.00,40.00,0,-999,0,0.11
2014-4-3,72,54,47,-100,-100,-100,0,0,100,0.00,40.00,0,-999,0,0.12
2014-4-4,70,60,53,-100,-100,-100,0,0,100,0.00,40.00,0,-999,0,0.54
2014-4-5,53,45,38,-100,-100,-100,0,0,100,0.00,40.00,0,-999,0,0.01
2014-4-6,64,44,28,-100,-100,-100,0,0,100,0.00,40.00,0,-999,0,0.00
2014-4-7,59,55,50,-100,-100,-100,0,0,100,0.00,40.00,0,-999,0,0.01
2014-4-8,63,54,45,-100,-100,-100,0,0,100,0.00,40.00,0,-999,0,0.01
2014-4-9,64,50,36,-100,-100,-100,0,0,100,0.00,40.00,0,-999,0,0.00
2014-4-10,77,52,33,-100,-100,-100,0,0,100,0.00,40.00,0,-999,0,0.00
2014-4-11,66,56,51,-100,-100,-100,0,0,100,0.00,40.00,0,-999,0,0.54
2014-4-12,83,58,43,-100,-100,-100,0,0,100,0.00,40.00,0,-999,0,0.02
2014-4-13,88,75,62,-100,-100,-100,0,0,100,0.00,40.00,0,-999,0,0.00
2014-4-14,79,70,65,-100,-100,-100,0,0,100,0.00,40.00,0,-999,0,0.01
2014-4-15,68,46,31,-100,-100,-100,0,0,100,0.00,40.00,0,-999,0,0.23
2014-4-16,48,34,27,-100,-100,-100,0,0,100,0.00,40.00,0,-999,0,0.02
2014-4-17,71,51,38,-100,-100,-100,0,0,100,0.00,40.00,0,-999,0,0.00
2014-4-18,73,52,41,-100,-100,-100,0,0,100,0.00,40.00,0,-999,0,0.00
2014-4-19,70,55,41,-100,-100,-100,0,0,100,0.00,40.00,0,-999,0,0.00